Hartford, CT

4:17 AM EDT on April 20, 2018 (GMT -0400)
Hartford-brainard

Weather History for KHFD - December, 2012

Change the Weather History Date:

Sunday, December 2, 2012

  Actual Average Record
Temperature  
Mean Temperature 40 °F -  
Max Temperature 48 °F 44 °F 64 °F (1998)
Min Temperature 32 °F 26 °F 10 °F (1989)
Degree Days  
Heating Degree Days 25    
Moisture  
Dew Point 38 °F    
Average Humidity 89    
Maximum Humidity 97    
Minimum Humidity 79    
Precipitation  
Precipitation 0.05 in - - ()
Sea Level Pressure  
Sea Level Pressure 30.25 in    
Wind  
Wind Speed 4 mph (South)    
Max Wind Speed 8 mph    
Max Gust Speed -    
Visibility 3 miles    
Events Fog , Rain    
Averages and records for this station are not official NWS values.
T = Trace of Precipitation, MM = Missing Value Source: NWS Daily Summary

Daily Weather History Graph

Daily Weather History Graph

Search for Another Location

Airport or City:

Astronomy

Dec. 02, 2012 Rise Set
Actual Time 6:59 AM EST 4:20 PM EST
Civil Twilight 6:28 AM EST 4:51 PM EST
Nautical Twilight 5:54 AM EST 5:26 PM EST
Astronomical Twilight 5:20 AM EST 5:59 PM EST
Moon 8:06 PM EST (12/2) 9:46 AM EST (12/2)
Length of Visible Light 10h 22m
Length of Day
9h 20m
Waning Gibbous, 86% of the Moon is Illuminated
Dec 2
Waning Gibbous
Dec 6
Last Quarter
Dec 13
New
Dec 20
First Quarter
Dec 28
Full

Hourly Weather History & Observations

Time (EST) Temp. Windchill Dew Point Humidity Pressure Visibility Wind Dir Wind Speed Gust Speed Precip Events Conditions
12:33 AM 32.0 °F 26.4 °F 30.2 °F 93% 30.47 in 1.8 mi North 5.8 mph - N/A   Overcast
12:53 AM 32.0 °F 25.6 °F 30.0 °F 92% 30.47 in 1.8 mi North 6.9 mph - N/A   Overcast
1:53 AM 32.0 °F 26.4 °F 30.9 °F 96% 30.45 in 1.5 mi NNE 5.8 mph - N/A   Overcast
2:53 AM 33.1 °F 27.7 °F 30.9 °F 92% 30.44 in 1.5 mi North 5.8 mph - N/A   Overcast
3:53 AM 33.1 °F 28.7 °F 30.9 °F 92% 30.43 in 1.5 mi North 4.6 mph - N/A   Overcast
4:53 AM 33.1 °F - 30.9 °F 92% 30.41 in 1.0 mi Calm Calm - N/A   Overcast
5:04 AM 33.8 °F - 32.0 °F 93% 30.41 in 0.8 mi Calm Calm - N/A   Overcast
5:53 AM 33.1 °F - 32.0 °F 96% 30.41 in 0.5 mi Calm Calm - N/A Fog Fog
6:53 AM 34.0 °F 31.0 °F 32.0 °F 92% 30.40 in 1.0 mi North 3.5 mph - N/A   Overcast
7:01 AM 33.8 °F - 32.0 °F 93% 30.39 in 0.8 mi Calm Calm - N/A   Overcast
7:53 AM 34.0 °F - 33.1 °F 96% 30.38 in 0.2 mi Calm Calm - N/A Fog Fog
8:53 AM 34.0 °F - 33.1 °F 96% 30.36 in 0.2 mi Calm Calm - N/A Fog Fog
9:53 AM 36.0 °F - 34.0 °F 93% 30.35 in 0.2 mi Calm Calm - N/A Fog Fog
10:53 AM 36.0 °F - 35.1 °F 97% 30.32 in 0.2 mi Calm Calm - N/A Fog Fog
11:53 AM 37.9 °F - 37.0 °F 97% 30.29 in 0.2 mi Calm Calm - N/A Fog Fog
12:26 PM 39.2 °F 37.0 °F 37.4 °F 93% 30.26 in 1.2 mi South 3.5 mph - N/A   Overcast
12:53 PM 39.9 °F - 37.9 °F 93% 30.25 in 1.0 mi Calm Calm - N/A   Overcast
1:14 PM 41.0 °F - 37.4 °F 87% 30.23 in 1.5 mi Calm Calm - N/A   Overcast
1:49 PM 42.8 °F - 39.2 °F 87% 30.20 in 2.5 mi Calm Calm - N/A   Scattered Clouds
1:53 PM 44.1 °F - 39.0 °F 82% 30.20 in 2.5 mi Calm Calm - N/A   Haze
2:00 PM 44.6 °F - 39.2 °F 81% 30.20 in 4.0 mi Calm Calm - N/A   Haze
2:53 PM 46.0 °F - 39.9 °F 79% 30.17 in 5.0 mi Calm Calm - N/A   Haze
3:53 PM 46.0 °F - 39.9 °F 79% 30.16 in 5.0 mi Calm Calm - N/A   Haze
4:53 PM 48.0 °F - 42.1 °F 80% 30.14 in 9.0 mi South 5.8 mph - N/A   Scattered Clouds
5:53 PM 48.0 °F - 42.1 °F 80% 30.13 in 8.0 mi South 4.6 mph - N/A   Clear
6:53 PM 48.0 °F - 42.1 °F 80% 30.14 in 8.0 mi South 5.8 mph - N/A   Mostly Cloudy
7:53 PM 46.9 °F - 43.0 °F 86% 30.11 in 6.0 mi South 5.8 mph - 0.00 in   Mostly Cloudy
8:23 PM 48.2 °F - 42.8 °F 82% 30.13 in 6.0 mi WSW 4.6 mph - N/A   Haze
8:49 PM 48.2 °F - 44.6 °F 87% 30.12 in 6.0 mi SSW 8.1 mph - N/A   Haze
8:53 PM 48.9 °F - 44.1 °F 83% 30.12 in 6.0 mi SSW 8.1 mph - N/A   Haze
9:18 PM 48.2 °F - 44.6 °F 87% 30.12 in 6.0 mi SSW 4.6 mph - 0.00 in   Haze
9:53 PM 48.0 °F - 44.1 °F 86% 30.11 in 6.0 mi South 5.8 mph - 0.00 in   Overcast
10:34 PM 48.2 °F - 46.4 °F 93% 30.10 in 4.0 mi South 4.6 mph - 0.05 in Rain Light Rain
10:53 PM 48.0 °F - 46.0 °F 93% 30.10 in 4.0 mi South 6.9 mph - 0.05 in   Overcast
11:50 PM 48.2 °F - 46.4 °F 93% 30.07 in 5.0 mi South 8.1 mph - N/A   Overcast
11:53 PM 48.9 °F - 46.0 °F 90% 30.07 in 5.0 mi South 8.1 mph - N/A   Overcast